Location: Caltech
(34.1382°N, 118.1253°W)
Time: 09:15:41
(UTC-07:00)

Lacrosse 5 - Visible Passes

Search period start: 30 March 2015 00:00
Search period end: 09 April 2015 00:00
Orbit: 715 x 723 km, 57.0° (Epoch: 19 March)

Date Brightness Start Highest point End Pass type
(mag) Time Alt. Az. Time Alt. Az. Time Alt. Az.
30 Mar 5.1 06:14:09 10° SE 06:15:04 11° ESE 06:16:21 10° ESE visible
01 Apr 4.3 06:07:17 10° S 06:11:08 23° ESE 06:15:07 10° ENE visible
02 Apr 4.9 05:17:27 10° SE 05:18:03 10° ESE 05:19:01 10° ESE visible
03 Apr 3.0 06:02:27 10° SSW 06:07:15 45° SE 06:12:06 10° NE visible
04 Apr 4.0 05:10:19 10° S 05:14:07 22° ESE 05:18:03 10° ENE visible
05 Apr 1.9 05:58:22 10° SW 06:03:28 89° ESE 06:08:33 10° NE visible
06 Apr 2.8 05:06:12 14° SSW 05:10:14 44° SE 05:15:04 10° NE visible
07 Apr 3.8 04:15:27 18° SSE 04:17:06 22° ESE 04:21:00 10° ENE visible
07 Apr 2.3 05:54:53 10° WSW 05:59:48 48° NW 06:04:43 10° NNE visible
08 Apr 1.8 05:03:47 29° SW 05:06:26 87° SE 05:11:32 10° NE visible
